TimeCST,TemperatureF,Dew PointF,Humidity,Sea Level PressureIn,VisibilityMPH,Wind Direction,Wind SpeedMPH,Gust SpeedMPH,PrecipitationIn,Events,Conditions,WindDirDegrees,DateUTC
12:54 AM,10.9,5.0,77,29.98,10.0,WNW,13.8,21.9,0.00,,Overcast,290,2013-12-15 06:54:00
1:52 AM,10.4,3.2,73,29.93,5.0,WNW,13.8,20.7,0.00,Snow,Light Snow,290,2013-12-15 07:52:00
1:54 AM,10.0,3.9,76,29.99,5.0,WNW,11.5,20.7,0.00,Snow,Light Snow,290,2013-12-15 07:54:00
2:38 AM,7.0,-0.0,73,29.95,10.0,WNW,18.4,26.5,0.00,,Mostly Cloudy,300,2013-12-15 08:38:00
2:54 AM,6.1,-0.9,73,30.01,10.0,WNW,12.7,-,0.00,,Partly Cloudy,300,2013-12-15 08:54:00
3:54 AM,5.0,-0.9,76,30.01,10.0,WNW,11.5,-,N/A,,Scattered Clouds,300,2013-12-15 09:54:00
4:24 AM,6.1,-0.9,73,29.94,10.0,WNW,15.0,-,N/A,,Mostly Cloudy,290,2013-12-15 10:24:00
4:54 AM,5.0,-0.9,76,30.02,10.0,WNW,15.0,-,N/A,,Overcast,300,2013-12-15 10:54:00
5:12 AM,3.9,-2.0,76,29.96,10.0,WNW,12.7,-,N/A,,Scattered Clouds,300,2013-12-15 11:12:00
5:54 AM,3.0,-2.9,76,30.03,10.0,WNW,12.7,-,N/A,,Clear,290,2013-12-15 11:54:00
6:54 AM,1.9,-2.9,80,30.04,10.0,WNW,10.4,-,N/A,,Scattered Clouds,290,2013-12-15 12:54:00
7:54 AM,1.0,-5.1,75,30.05,10.0,WNW,9.2,-,N/A,,Clear,300,2013-12-15 13:54:00
8:54 AM,1.0,-6.0,72,30.07,10.0,NW,15.0,-,N/A,,Clear,310,2013-12-15 14:54:00
9:54 AM,1.0,-7.1,69,30.09,10.0,WNW,13.8,20.7,N/A,,Clear,300,2013-12-15 15:54:00
10:54 AM,1.9,-6.0,69,30.08,10.0,NW,13.8,20.7,N/A,,Clear,310,2013-12-15 16:54:00
11:54 AM,3.9,-8.0,58,30.07,10.0,NW,15.0,-,N/A,,Clear,320,2013-12-15 17:54:00
12:54 PM,5.0,-8.0,55,30.06,10.0,NW,11.5,-,N/A,,Clear,310,2013-12-15 18:54:00
1:54 PM,6.1,-9.0,50,30.06,10.0,WNW,13.8,-,N/A,,Clear,300,2013-12-15 19:54:00
2:54 PM,6.1,-9.9,48,30.09,10.0,NW,13.8,-,N/A,,Clear,310,2013-12-15 20:54:00
3:54 PM,3.9,-11.0,50,30.10,10.0,NW,9.2,-,N/A,,Clear,320,2013-12-15 21:54:00
4:54 PM,1.0,-11.9,55,30.13,10.0,NNW,8.1,-,N/A,,Clear,340,2013-12-15 22:54:00
5:54 PM,-0.9,-13.0,57,30.14,10.0,NW,8.1,-,N/A,,Clear,320,2013-12-15 23:54:00
6:54 PM,-2.9,-13.0,62,30.17,10.0,WNW,9.2,-,N/A,,Clear,300,2013-12-16 00:54:00
7:54 PM,-5.1,-14.1,65,30.18,10.0,NW,8.1,-,N/A,,Clear,310,2013-12-16 01:54:00
8:54 PM,6.1,-15.0,38,30.18,10.0,WNW,4.6,-,N/A,,Clear,300,2013-12-16 02:54:00
9:54 PM,5.0,-15.0,39,30.19,10.0,WNW,3.5,-,N/A,,Clear,300,2013-12-16 03:54:00
10:54 PM,-4.0,-13.0,65,30.19,10.0,Calm,Calm,-,N/A,,Clear,0,2013-12-16 04:54:00
11:54 PM,3.0,-16.1,41,30.19,10.0,WSW,3.5,-,N/A,,Clear,250,2013-12-16 05:54:00